When you browse on this site, cookies collect data to enhance your experience and personalize the content and advertising you see.
Visit our Privacy Policy to learn more. By continuing to use the site, you agree to this use of cookies and data.

Hourly Weather Wikno

Today, 12 July, Sunday

Time Temperature Precipitation Wind Pressure Humidity
00:00 +10°C° 0 mm 2 mps 753 mmHg 91%
01:00 +10°C° 0 mm 2 mps 753 mmHg 92%
02:00 +10°C° 0 mm 2 mps 753 mmHg 92%
03:00 +9°C° 0 mm 2 mps 753 mmHg 91%
04:00 +9°C° 0 mm 2 mps 752 mmHg 91%
05:00 +12°C° 0 mm 2 mps 753 mmHg 86%
06:00 +13°C° 0 mm 2 mps 753 mmHg 80%
07:00 +14°C° 0 mm 3 mps 753 mmHg 75%
08:00 +16°C° 0 mm 3 mps 753 mmHg 69%
09:00 +17°C° 0 mm 4 mps 753 mmHg 63%
10:00 +18°C° 0 mm 4 mps 753 mmHg 57%
11:00 +19°C° 0.1 mm 4 mps 753 mmHg 55%
12:00 +19°C° 0.1 mm 5 mps 753 mmHg 53%
13:00 +20°C° 0.1 mm 5 mps 754 mmHg 51%
14:00 +19°C° 0.2 mm 5 mps 754 mmHg 56%
15:00 +19°C° 0.2 mm 4 mps 753 mmHg 61%
16:00 +18°C° 0.2 mm 4 mps 753 mmHg 67%
17:00 +17°C° 0.1 mm 3 mps 753 mmHg 71%
18:00 +16°C° 0.1 mm 2 mps 753 mmHg 76%
19:00 +15°C° 0.1 mm 2 mps 753 mmHg 80%
20:00 +14°C° 0 mm 1 mps 753 mmHg 84%
21:00 +12°C° 0 mm 1 mps 754 mmHg 88%
22:00 +11°C° 0 mm 1 mps 754 mmHg 91%
23:00 +11°C° 0 mm 1 mps 754 mmHg 92%

Tomorrow, 13 July, Monday

Time Temperature Precipitation Wind Pressure Humidity
00:00 +9°C° 0 mm 2 mps 754 mmHg 93%
01:00 +9°C° 0 mm 2 mps 754 mmHg 93%
02:00 +9°C° 0 mm 2 mps 753 mmHg 93%
03:00 +9°C° 0 mm 3 mps 753 mmHg 94%
04:00 +9°C° 0 mm 3 mps 752 mmHg 94%
05:00 +10°C° 0 mm 3 mps 753 mmHg 90%
06:00 +12°C° 0 mm 3 mps 753 mmHg 86%
07:00 +14°C° 0 mm 4 mps 753 mmHg 82%
08:00 +14°C° 0.3 mm 4 mps 753 mmHg 82%
09:00 +15°C° 0.3 mm 4 mps 752 mmHg 82%
10:00 +15°C° 0.3 mm 4 mps 752 mmHg 82%
11:00 +17°C° 0.3 mm 4 mps 752 mmHg 80%
12:00 +17°C° 0.3 mm 4 mps 752 mmHg 79%
13:00 +17°C° 0.3 mm 4 mps 752 mmHg 78%
14:00 +17°C° 0.2 mm 3 mps 752 mmHg 79%
15:00 +17°C° 0.2 mm 3 mps 751 mmHg 80%
16:00 +17°C° 0.2 mm 3 mps 751 mmHg 82%
17:00 +17°C° 0.2 mm 2 mps 751 mmHg 84%
18:00 +16°C° 0.2 mm 2 mps 751 mmHg 87%
19:00 +16°C° 0.2 mm 2 mps 751 mmHg 90%
20:00 +14°C° 0 mm 1 mps 751 mmHg 92%
21:00 +13°C° 0 mm 1 mps 751 mmHg 93%
22:00 +12°C° 0 mm 1 mps 751 mmHg 94%
23:00 +12°C° 0 mm 1 mps 751 mmHg 94%

Day after tomorrow, 14 July, Tuesday

Time Temperature Precipitation Wind Pressure Humidity
00:00 +11°C° 0 mm 1 mps 751 mmHg 95%
01:00 +11°C° 0 mm 1 mps 751 mmHg 95%
02:00 +11°C° 0 mm 1 mps 751 mmHg 95%
03:00 +11°C° 0 mm 1 mps 751 mmHg 95%
04:00 +10°C° 0 mm 1 mps 751 mmHg 95%
05:00 +12°C° 0 mm 1 mps 751 mmHg 90%
06:00 +14°C° 0 mm 1 mps 751 mmHg 86%
07:00 +15°C° 0 mm 1 mps 751 mmHg 81%
08:00 +17°C° 0 mm 2 mps 751 mmHg 75%
09:00 +18°C° 0 mm 2 mps 751 mmHg 68%
10:00 +20°C° 0 mm 2 mps 751 mmHg 62%
11:00 +20°C° 0.1 mm 2 mps 751 mmHg 60%
12:00 +21°C° 0.1 mm 2 mps 750 mmHg 58%
13:00 +23°C° 0.1 mm 2 mps 750 mmHg 56%
14:00 +23°C° 0.1 mm 1 mps 750 mmHg 57%
15:00 +23°C° 0.1 mm 1 mps 750 mmHg 58%
16:00 +22°C° 0.1 mm 1 mps 749 mmHg 60%
17:00 +21°C° 0.2 mm 1 mps 749 mmHg 67%
18:00 +20°C° 0.2 mm 1 mps 749 mmHg 73%
19:00 +19°C° 0.2 mm 1 mps 749 mmHg 80%
20:00 +18°C° 0.1 mm 1 mps 749 mmHg 83%
21:00 +16°C° 0.1 mm 1 mps 749 mmHg 87%
22:00 +15°C° 0.1 mm 1 mps 749 mmHg 90%
23:00 +14°C° 0 mm 1 mps 749 mmHg 91%

15 July, Wednesday

Time Temperature Precipitation Wind Pressure Humidity
00:00 +14°C° 0 mm 1 mps 749 mmHg 92%
01:00 +13°C° 0 mm 2 mps 749 mmHg 93%
02:00 +13°C° 0 mm 1 mps 749 mmHg 94%
03:00 +13°C° 0 mm 1 mps 749 mmHg 94%
04:00 +13°C° 0 mm 1 mps 749 mmHg 94%
05:00 +14°C° 0 mm 2 mps 749 mmHg 91%
06:00 +16°C° 0 mm 2 mps 749 mmHg 87%
07:00 +18°C° 0 mm 2 mps 749 mmHg 83%
08:00 +19°C° 0.1 mm 2 mps 749 mmHg 75%
09:00 +21°C° 0.1 mm 3 mps 748 mmHg 67%
10:00 +24°C° 0.1 mm 3 mps 748 mmHg 59%
11:00 +24°C° 0.3 mm 3 mps 748 mmHg 59%
12:00 +24°C° 0.3 mm 3 mps 748 mmHg 60%
13:00 +24°C° 0.3 mm 3 mps 747 mmHg 60%
14:00 +24°C° 0.2 mm 3 mps 747 mmHg 61%
15:00 +24°C° 0.2 mm 3 mps 747 mmHg 62%
16:00 +24°C° 0.2 mm 3 mps 746 mmHg 62%
17:00 +22°C° 0.2 mm 3 mps 746 mmHg 69%
18:00 +21°C° 0.2 mm 3 mps 746 mmHg 76%
19:00 +19°C° 0.2 mm 3 mps 746 mmHg 83%
20:00 +18°C° 0 mm 3 mps 746 mmHg 86%
21:00 +17°C° 0 mm 3 mps 746 mmHg 88%
22:00 +16°C° 0 mm 3 mps 746 mmHg 91%
23:00 +16°C° 0 mm 3 mps 745 mmHg 92%

16 July, Thursday

Time Temperature Precipitation Wind Pressure Humidity
00:00 +16°C° 0 mm 3 mps 745 mmHg 93%
01:00 +14°C° 0 mm 3 mps 745 mmHg 94%
02:00 +14°C° 0 mm 3 mps 745 mmHg 94%
03:00 +14°C° 0 mm 3 mps 745 mmHg 94%
04:00 +14°C° 0 mm 3 mps 744 mmHg 94%
05:00 +16°C° 0.4 mm 3 mps 744 mmHg 95%
06:00 +16°C° 0.4 mm 3 mps 744 mmHg 95%
07:00 +16°C° 0.4 mm 3 mps 744 mmHg 96%
08:00 +17°C° 0.3 mm 3 mps 744 mmHg 95%
09:00 +17°C° 0.3 mm 3 mps 744 mmHg 94%
10:00 +18°C° 0.3 mm 3 mps 744 mmHg 93%
11:00 +17°C° 0.6 mm 3 mps 744 mmHg 94%
12:00 +17°C° 0.6 mm 2 mps 744 mmHg 94%
13:00 +17°C° 0.6 mm 2 mps 744 mmHg 94%
14:00 +17°C° 0.5 mm 2 mps 743 mmHg 94%
15:00 +17°C° 0.5 mm 2 mps 743 mmHg 95%
16:00 +16°C° 0.5 mm 2 mps 743 mmHg 95%
17:00 +16°C° 0.3 mm 3 mps 743 mmHg 95%
18:00 +14°C° 0.3 mm 3 mps 743 mmHg 96%
19:00 +14°C° 0.3 mm 3 mps 743 mmHg 96%
20:00 +13°C° 0.1 mm 3 mps 743 mmHg 96%
21:00 +13°C° 0.1 mm 3 mps 743 mmHg 97%
22:00 +13°C° 0.1 mm 3 mps 743 mmHg 97%
23:00 +13°C° 0.5 mm 3 mps 743 mmHg 97%

17 July, Friday

Time Temperature Precipitation Wind Pressure Humidity
00:00 +13°C° 0.5 mm 3 mps 743 mmHg 97%
01:00 +13°C° 0.5 mm 4 mps 742 mmHg 97%
02:00 +13°C° 1.3 mm 4 mps 742 mmHg 97%
03:00 +13°C° 1.3 mm 4 mps 742 mmHg 97%
04:00 +12°C° 1.3 mm 4 mps 742 mmHg 97%
05:00 +12°C° 1.2 mm 4 mps 742 mmHg 97%
06:00 +13°C° 1.2 mm 3 mps 742 mmHg 97%
07:00 +13°C° 1.2 mm 3 mps 741 mmHg 96%
08:00 +13°C° 0.3 mm 3 mps 742 mmHg 93%
09:00 +15°C° 0.3 mm 2 mps 742 mmHg 90%
10:00 +16°C° 0.3 mm 2 mps 742 mmHg 86%
11:00 +17°C° 0.3 mm 2 mps 742 mmHg 82%
12:00 +18°C° 0.3 mm 2 mps 742 mmHg 78%
13:00 +19°C° 0.3 mm 2 mps 742 mmHg 74%
14:00 +19°C° 0.3 mm 2 mps 743 mmHg 75%
15:00 +19°C° 0.3 mm 2 mps 743 mmHg 75%
16:00 +19°C° 0.3 mm 2 mps 743 mmHg 75%
17:00 +18°C° 0.5 mm 2 mps 743 mmHg 80%
18:00 +17°C° 0.5 mm 2 mps 743 mmHg 85%
19:00 +16°C° 0.5 mm 2 mps 744 mmHg 90%
20:00 +16°C° 0.1 mm 2 mps 744 mmHg 92%
21:00 +15°C° 0.1 mm 2 mps 744 mmHg 94%
22:00 +14°C° 0.1 mm 2 mps 745 mmHg 96%
23:00 +14°C° 0 mm 2 mps 745 mmHg 95%
Show more